Location: Dziadowski
(50.3833°N, 20.0333°E)
Time: 08:51:04
(UTC+00:00)

Cosmos 1140 Rocket - Pass Details

Date: 18 January 2026
Orbit: 739 x 763 km, 74.1° (Epoch: 16 February)

Event Time Altitude Azimuth Distance (km) Brightness Sun altitude
Rises 04:29:28 0° 206° (SSW) 3,163 6.5 -18.9°
Reaches altitude 10° 04:31:48 10° 208° (SSW) 2,246 5.7 -18.6°
Maximum altitude 04:36:54 78° 295° (WNW) 766 3.3 -17.8°
Drops below altitude 10° 04:42:03 10° 22° (NNE) 2,274 6.1 -16.9°
Sets 04:44:26 0° 24° (NNE) 3,205 6.9 -16.6°
